TimeCDT,TemperatureF,Dew PointF,Humidity,Sea Level PressureIn,VisibilityMPH,Wind Direction,Wind SpeedMPH,Gust SpeedMPH,PrecipitationIn,Events,Conditions,WindDirDegrees,DateUTC
12:54 AM,75.9,64.0,67,29.98,10.0,Calm,Calm,-,N/A,,Clear,0,2013-09-08 05:54:00
1:54 AM,75.9,63.0,64,29.96,10.0,South,4.6,-,N/A,,Clear,180,2013-09-08 06:54:00
2:54 AM,75.9,64.0,67,29.95,10.0,South,5.8,-,N/A,,Clear,190,2013-09-08 07:54:00
3:54 AM,75.0,64.9,71,29.95,10.0,SSW,4.6,-,N/A,,Clear,200,2013-09-08 08:54:00
4:54 AM,75.0,64.9,71,29.95,10.0,Calm,Calm,-,N/A,,Clear,0,2013-09-08 09:54:00
5:54 AM,73.9,66.0,76,29.96,10.0,Calm,Calm,-,N/A,,Clear,0,2013-09-08 10:54:00
6:54 AM,73.9,66.0,76,29.97,10.0,Calm,Calm,-,N/A,,Clear,0,2013-09-08 11:54:00
7:54 AM,77.0,66.9,71,29.98,10.0,Calm,Calm,-,N/A,,Clear,0,2013-09-08 12:54:00
8:54 AM,81.0,66.0,60,29.98,10.0,Variable,4.6,-,N/A,,Clear,0,2013-09-08 13:54:00
9:54 AM,86.0,66.9,53,29.99,10.0,WSW,4.6,-,N/A,,Clear,240,2013-09-08 14:54:00
10:54 AM,90.0,68.0,48,29.99,10.0,WSW,4.6,-,N/A,,Clear,240,2013-09-08 15:54:00
11:54 AM,91.9,66.9,44,29.98,10.0,West,6.9,-,N/A,,Partly Cloudy,260,2013-09-08 16:54:00
12:54 PM,96.1,66.0,37,29.97,10.0,WSW,8.1,-,N/A,,Scattered Clouds,240,2013-09-08 17:54:00
1:54 PM,97.0,66.0,36,29.95,10.0,West,5.8,-,N/A,,Scattered Clouds,280,2013-09-08 18:54:00
2:54 PM,97.0,64.9,35,29.92,10.0,Calm,Calm,-,N/A,,Scattered Clouds,0,2013-09-08 19:54:00
3:54 PM,97.0,63.0,32,29.91,10.0,West,4.6,-,N/A,,Scattered Clouds,270,2013-09-08 20:54:00
4:54 PM,96.1,63.0,33,29.89,10.0,SW,4.6,-,N/A,,Scattered Clouds,220,2013-09-08 21:54:00
5:54 PM,93.9,63.0,36,29.89,10.0,SW,8.1,-,N/A,,Scattered Clouds,230,2013-09-08 22:54:00
6:54 PM,91.0,64.0,41,29.90,10.0,SW,4.6,-,N/A,,Mostly Cloudy,230,2013-09-08 23:54:00
7:54 PM,87.1,66.0,49,29.91,10.0,SSW,4.6,-,N/A,,Scattered Clouds,210,2013-09-09 00:54:00
8:54 PM,87.1,66.9,51,29.92,10.0,SSW,4.6,-,N/A,,Scattered Clouds,210,2013-09-09 01:54:00
9:54 PM,84.9,68.0,57,29.93,10.0,SW,5.8,-,N/A,,Mostly Cloudy,220,2013-09-09 02:54:00
10:54 PM,84.9,66.9,55,29.94,10.0,SSW,8.1,-,N/A,,Mostly Cloudy,210,2013-09-09 03:54:00
11:54 PM,84.0,66.0,55,29.94,10.0,SW,5.8,-,N/A,,Mostly Cloudy,220,2013-09-09 04:54:00